• In Netherlands
  • List of Countries
  • For 7 days
  • Water Temperature
  • Satellite Maps
  • Weather Map
  • Weather Widgets
  • user-avatar
    Login

    Hourly Weather Primorsko

    Today, 24 March, Friday

    Time Temperature Precipitation Wind Pressure Humidity
    00:00 +5°C° 0 mm 2 mps 767 mmHg 87%
    01:00 +6°C° 0 mm 1 mps 767 mmHg 87%
    02:00 +6°C° 0 mm 1 mps 767 mmHg 87%
    03:00 +5°C° 0 mm 1 mps 767 mmHg 86%
    04:00 +5°C° 0 mm 1 mps 767 mmHg 86%
    05:00 +4°C° 0 mm 2 mps 767 mmHg 86%
    06:00 +6°C° 0 mm 2 mps 767 mmHg 81%
    07:00 +8°C° 0 mm 2 mps 767 mmHg 76%
    08:00 +9°C° 0 mm 2 mps 767 mmHg 72%
    09:00 +12°C° 0 mm 2 mps 767 mmHg 66%
    10:00 +13°C° 0 mm 2 mps 767 mmHg 60%
    11:00 +15°C° 0 mm 2 mps 767 mmHg 54%
    12:00 +16°C° 0 mm 2 mps 766 mmHg 52%
    13:00 +16°C° 0 mm 2 mps 766 mmHg 51%
    14:00 +17°C° 0 mm 2 mps 766 mmHg 49%
    15:00 +16°C° 0 mm 2 mps 765 mmHg 54%
    16:00 +16°C° 0 mm 2 mps 765 mmHg 58%
    17:00 +15°C° 0 mm 2 mps 765 mmHg 62%
    18:00 +13°C° 0 mm 2 mps 765 mmHg 69%
    19:00 +11°C° 0 mm 1 mps 765 mmHg 76%
    20:00 +9°C° 0 mm 1 mps 765 mmHg 82%
    21:00 +8°C° 0 mm 1 mps 765 mmHg 82%
    22:00 +8°C° 0 mm 1 mps 765 mmHg 81%
    23:00 +8°C° 0 mm 1 mps 765 mmHg 80%

    Tomorrow, 25 March, Saturday

    Time Temperature Precipitation Wind Pressure Humidity
    00:00 +7°C° 0 mm 0 mps 765 mmHg 80%
    01:00 +6°C° 0 mm 0 mps 765 mmHg 80%
    02:00 +6°C° 0 mm 0 mps 765 mmHg 80%
    03:00 +6°C° 0 mm 0 mps 765 mmHg 79%
    04:00 +7°C° 0 mm 1 mps 765 mmHg 79%
    05:00 +7°C° 0 mm 1 mps 765 mmHg 78%
    06:00 +9°C° 0 mm 1 mps 765 mmHg 73%
    07:00 +11°C° 0 mm 1 mps 765 mmHg 67%
    08:00 +13°C° 0 mm 1 mps 765 mmHg 61%
    09:00 +14°C° 0 mm 2 mps 765 mmHg 62%
    10:00 +14°C° 0 mm 4 mps 765 mmHg 64%
    11:00 +14°C° 0 mm 5 mps 766 mmHg 65%
    12:00 +14°C° 0 mm 5 mps 765 mmHg 66%
    13:00 +14°C° 0 mm 5 mps 765 mmHg 67%
    14:00 +14°C° 0 mm 5 mps 765 mmHg 69%
    15:00 +13°C° 0 mm 5 mps 765 mmHg 73%
    16:00 +12°C° 0 mm 5 mps 765 mmHg 78%
    17:00 +10°C° 0 mm 5 mps 764 mmHg 83%
    18:00 +9°C° 0 mm 5 mps 765 mmHg 86%
    19:00 +8°C° 0 mm 4 mps 765 mmHg 89%
    20:00 +8°C° 0 mm 3 mps 765 mmHg 93%
    21:00 +8°C° 0 mm 2 mps 765 mmHg 93%
    22:00 +7°C° 0 mm 2 mps 765 mmHg 94%
    23:00 +8°C° 0 mm 1 mps 765 mmHg 95%

    Day after tomorrow, 26 March, Sunday

    Time Temperature Precipitation Wind Pressure Humidity
    00:00 +7°C° 0 mm 1 mps 765 mmHg 95%
    01:00 +7°C° 0 mm 1 mps 764 mmHg 95%
    02:00 +6°C° 0 mm 0 mps 764 mmHg 95%
    03:00 +6°C° 0 mm 0 mps 764 mmHg 95%
    04:00 +6°C° 0 mm 1 mps 763 mmHg 95%
    05:00 +6°C° 0 mm 1 mps 763 mmHg 95%
    06:00 +8°C° 0 mm 1 mps 762 mmHg 91%
    07:00 +9°C° 0 mm 1 mps 762 mmHg 88%
    08:00 +10°C° 0 mm 1 mps 762 mmHg 84%
    09:00 +12°C° 0 mm 2 mps 762 mmHg 79%
    10:00 +14°C° 0 mm 2 mps 761 mmHg 73%
    11:00 +14°C° 0 mm 3 mps 761 mmHg 68%
    12:00 +16°C° 0 mm 3 mps 760 mmHg 67%
    13:00 +17°C° 0 mm 3 mps 759 mmHg 66%
    14:00 +17°C° 0 mm 3 mps 759 mmHg 66%
    15:00 +17°C° 0.3 mm 3 mps 758 mmHg 69%
    16:00 +16°C° 0.3 mm 3 mps 758 mmHg 72%
    17:00 +16°C° 0.3 mm 3 mps 757 mmHg 76%
    18:00 +14°C° 1 mm 3 mps 757 mmHg 81%
    19:00 +12°C° 1 mm 3 mps 758 mmHg 87%
    20:00 +11°C° 1 mm 3 mps 758 mmHg 93%
    21:00 +11°C° 1.2 mm 3 mps 758 mmHg 94%
    22:00 +10°C° 1.2 mm 3 mps 758 mmHg 95%
    23:00 +10°C° 1.2 mm 3 mps 758 mmHg 96%

    27 March, Monday

    Time Temperature Precipitation Wind Pressure Humidity
    00:00 +9°C° 0.6 mm 5 mps 758 mmHg 95%
    01:00 +8°C° 0.6 mm 6 mps 759 mmHg 95%
    02:00 +8°C° 0.6 mm 7 mps 759 mmHg 94%
    03:00 +6°C° 2.3 mm 8 mps 759 mmHg 93%
    04:00 +5°C° 2.3 mm 8 mps 759 mmHg 93%
    05:00 +5°C° 2.3 mm 9 mps 760 mmHg 92%
    06:00 +5°C° 1 mm 9 mps 760 mmHg 90%
    07:00 +5°C° 1 mm 9 mps 761 mmHg 89%
    08:00 +3°C° 1 mm 9 mps 762 mmHg 87%
    09:00 +5°C° 0.1 mm 8 mps 762 mmHg 84%
    10:00 +5°C° 0.1 mm 8 mps 763 mmHg 81%
    11:00 +6°C° 0.1 mm 8 mps 763 mmHg 78%
    12:00 +6°C° 0 mm 7 mps 764 mmHg 74%
    13:00 +8°C° 0 mm 7 mps 764 mmHg 71%
    14:00 +9°C° 0 mm 6 mps 764 mmHg 67%
    15:00 +9°C° 0 mm 5 mps 764 mmHg 68%
    16:00 +8°C° 0 mm 5 mps 764 mmHg 68%
    17:00 +8°C° 0 mm 4 mps 764 mmHg 68%
    18:00 +8°C° 0 mm 3 mps 764 mmHg 73%
    19:00 +7°C° 0 mm 2 mps 765 mmHg 78%
    20:00 +5°C° 0 mm 2 mps 765 mmHg 83%
    21:00 +5°C° 0 mm 2 mps 766 mmHg 84%
    22:00 +5°C° 0 mm 2 mps 766 mmHg 84%
    23:00 +4°C° 0 mm 2 mps 766 mmHg 85%

    28 March, Tuesday

    Time Temperature Precipitation Wind Pressure Humidity
    00:00 +4°C° 0 mm 2 mps 766 mmHg 83%
    01:00 +3°C° 0 mm 3 mps 766 mmHg 81%
    02:00 +3°C° 0 mm 3 mps 767 mmHg 79%
    03:00 +3°C° 0 mm 4 mps 767 mmHg 78%
    04:00 +4°C° 0 mm 4 mps 767 mmHg 77%
    05:00 +3°C° 0 mm 5 mps 767 mmHg 77%
    06:00 +3°C° 0 mm 6 mps 767 mmHg 75%
    07:00 +4°C° 0 mm 6 mps 768 mmHg 74%
    08:00 +5°C° 0 mm 7 mps 768 mmHg 73%
    09:00 +6°C° 0 mm 7 mps 768 mmHg 69%
    10:00 +6°C° 0 mm 7 mps 769 mmHg 64%
    11:00 +8°C° 0 mm 6 mps 769 mmHg 60%
    12:00 +9°C° 0 mm 6 mps 769 mmHg 59%
    13:00 +9°C° 0 mm 5 mps 768 mmHg 58%
    14:00 +9°C° 0 mm 5 mps 768 mmHg 57%
    15:00 +9°C° 0 mm 5 mps 768 mmHg 59%
    16:00 +8°C° 0 mm 4 mps 768 mmHg 61%
    17:00 +8°C° 0 mm 4 mps 768 mmHg 63%
    18:00 +7°C° 0 mm 3 mps 768 mmHg 68%
    19:00 +6°C° 0 mm 2 mps 768 mmHg 74%
    20:00 +4°C° 0 mm 2 mps 769 mmHg 79%
    21:00 +5°C° 0 mm 1 mps 769 mmHg 80%
    22:00 +5°C° 0 mm 1 mps 769 mmHg 81%
    23:00 +4°C° 0 mm 1 mps 769 mmHg 82%

    29 March, Wednesday

    Time Temperature Precipitation Wind Pressure Humidity
    00:00 +4°C° 0 mm 1 mps 769 mmHg 82%
    01:00 +4°C° 0 mm 1 mps 769 mmHg 82%
    02:00 +4°C° 0 mm 1 mps 769 mmHg 81%
    03:00 +4°C° 0 mm 1 mps 769 mmHg 81%
    04:00 +3°C° 0 mm 2 mps 769 mmHg 81%
    05:00 +3°C° 0 mm 2 mps 769 mmHg 80%
    06:00 +5°C° 0 mm 2 mps 769 mmHg 76%
    07:00 +7°C° 0 mm 2 mps 769 mmHg 71%
    08:00 +9°C° 0 mm 2 mps 769 mmHg 66%
    09:00 +10°C° 0 mm 2 mps 770 mmHg 63%
    10:00 +13°C° 0 mm 2 mps 770 mmHg 59%
    11:00 +14°C° 0 mm 2 mps 770 mmHg 56%
    12:00 +14°C° 0 mm 3 mps 770 mmHg 55%
    13:00 +16°C° 0 mm 3 mps 769 mmHg 53%
    14:00 +16°C° 0 mm 3 mps 769 mmHg 52%
    15:00 +14°C° 0 mm 3 mps 769 mmHg 56%
    16:00 +14°C° 0 mm 3 mps 769 mmHg 60%
    17:00 +13°C° 0 mm 3 mps 769 mmHg 63%
    18:00 +11°C° 0 mm 3 mps 769 mmHg 69%
    19:00 +9°C° 0 mm 3 mps 769 mmHg 75%
    20:00 +7°C° 0 mm 2 mps 769 mmHg 80%
    21:00 +7°C° 0 mm 2 mps 769 mmHg 82%
    22:00 +6°C° 0 mm 2 mps 769 mmHg 84%
    23:00 +7°C° 0 mm 1 mps 769 mmHg 86%
    Show more